Regional Weather Roundup
Issued by NWS

Current Version | Previous Version | Text Only | Print | Product List | Glossary On
Versions: 1 2 3 4 5 6 7 8 9 10 11 12 13 14 15 16 17 18 19 20 21 22 23 24 25 26 27 28 29 30 31 32 33 34 35 36 37 38 39 40 41 42 43 44 45 46 47 48 49 50
000
ASCA42 TJSJ 251210
RWRPR
PUERTO RICO/U.S. VIRGIN ISLANDS HOURLY WEATHER ROUNDUP
NATIONAL WEATHER SERVICE SAN JUAN PR
800 AM AST MON MAR 25 2019

PRZ001>002-007>008-010-251300-
PUERTO RICO

CITY           SKY/WX    TMP DP  RH WIND       PRES   REMARKS
SAN JUAN LMM   MOSUNNY   79  72  78 E12       30.04R
AGUADILLA      SUNNY     73  70  88 E6        30.03R
CEIBA          PTSUNNY   81  70  69 E16G24    30.05R
$$

VIZ001>002-251300-
U.S. VIRGIN ISLANDS

CITY           SKY/WX    TMP DP  RH WIND       PRES   REMARKS
CHARLOTTE AMA  MOSUNNY   81  68  65 E14G25    30.04R
$$

HOURLY WEATHER ROUNDUP FOR THE NEWS MEDIA

CITY           SKY/WX    TMP DP  RH WIND       PRES   REMARKS
ORLANDO        CLOUDY    65  60  84 W3        30.13R
NEW YORK       CLOUDY    51  28  41 NW13      30.04R
NEWARK         CLOUDY    52  25  35 NW9       30.03R
CHICAGO        MOCLDY    33  29  85 NE22G31   30.22R WCI  21
HARTFORD       CLOUDY    46  29  51 W10       30.01R
BOSTON         CLOUDY    41  26  55 N13       30.03R
DALLAS         PTCLDY    57  49  74 N6        30.12R
PHILADELPHIA   CLOUDY    53  34  48 CALM      30.02S
LOS ANGELES    CLEAR     52  49  89 E5        30.11F
WASHINGTON DC  FAIR      42  35  76 CALM      30.04R



USA.gov is the U.S. government's official web portal to all federal, state and local government web resources and services.